Year,Month,Day,Hour,Minute,Value (Times are PST for temperature in C)
2020,05,11,00,00,16.60
2020,05,11,00,01,16.60
2020,05,11,00,02,16.60
2020,05,11,00,03,16.60
2020,05,11,00,04,16.50
2020,05,11,00,05,16.50
2020,05,11,00,06,16.50
2020,05,11,00,07,16.50
2020,05,11,00,08,16.40
2020,05,11,00,09,16.40
2020,05,11,00,10,16.40
2020,05,11,00,11,16.40
2020,05,11,00,12,16.40
2020,05,11,00,13,16.30
2020,05,11,00,14,16.30
2020,05,11,00,15,16.30
2020,05,11,00,16,16.30
2020,05,11,00,17,16.30
2020,05,11,00,18,16.30
2020,05,11,00,19,16.30
2020,05,11,00,20,16.30
2020,05,11,00,21,16.30
2020,05,11,00,22,16.20
2020,05,11,00,23,16.20
2020,05,11,00,24,16.20
2020,05,11,00,25,16.20
2020,05,11,00,26,16.20
2020,05,11,00,27,16.20
2020,05,11,00,28,16.10
2020,05,11,00,29,16.10
2020,05,11,00,30,16.10
2020,05,11,00,31,16.10
2020,05,11,00,32,16.10
2020,05,11,00,33,16.00
2020,05,11,00,34,16.00
2020,05,11,00,35,16.00
2020,05,11,00,36,16.00
2020,05,11,00,37,16.00
2020,05,11,00,38,15.90
2020,05,11,00,39,15.90
2020,05,11,00,40,15.90
2020,05,11,00,41,15.90
2020,05,11,00,42,15.90
2020,05,11,00,43,15.90
2020,05,11,00,44,15.90
2020,05,11,00,45,15.80
2020,05,11,00,46,15.80
2020,05,11,00,47,15.80
2020,05,11,00,48,15.80
2020,05,11,00,49,15.80
2020,05,11,00,50,15.80
2020,05,11,00,51,15.80
2020,05,11,00,52,15.70
2020,05,11,00,53,15.70
2020,05,11,00,54,15.70
2020,05,11,00,55,15.70
2020,05,11,00,56,15.70
2020,05,11,00,57,15.60
2020,05,11,00,58,15.60
2020,05,11,00,59,15.60
2020,05,11,01,00,15.60
2020,05,11,01,01,15.60
2020,05,11,01,02,15.50
2020,05,11,01,03,15.50
2020,05,11,01,04,15.50
2020,05,11,01,05,15.50
2020,05,11,01,06,15.40
2020,05,11,01,07,15.40
2020,05,11,01,08,15.40
2020,05,11,01,09,15.40
2020,05,11,01,10,15.40
2020,05,11,01,11,15.40
2020,05,11,01,12,15.40
2020,05,11,01,13,15.40
2020,05,11,01,14,15.40
2020,05,11,01,15,15.40
2020,05,11,01,16,15.40
2020,05,11,01,17,15.30
2020,05,11,01,18,15.30
2020,05,11,01,19,15.30
2020,05,11,01,20,15.30
2020,05,11,01,21,15.30
2020,05,11,01,22,15.30
2020,05,11,01,23,15.20
2020,05,11,01,24,15.20
2020,05,11,01,25,15.20
2020,05,11,01,26,15.20
2020,05,11,01,27,15.20
2020,05,11,01,28,15.20
2020,05,11,01,29,15.20
2020,05,11,01,30,15.20
2020,05,11,01,31,15.10
2020,05,11,01,32,15.10
2020,05,11,01,33,15.10
2020,05,11,01,34,15.10
2020,05,11,01,35,15.10
2020,05,11,01,36,15.10
2020,05,11,01,37,15.10
2020,05,11,01,38,15.10
2020,05,11,01,39,15.10
2020,05,11,01,40,15.10
2020,05,11,01,41,15.10
2020,05,11,01,42,15.10
2020,05,11,01,43,15.10
2020,05,11,01,44,15.10
2020,05,11,01,45,15.10
2020,05,11,01,46,15.10
2020,05,11,01,47,15.10
2020,05,11,01,48,15.10
2020,05,11,01,49,15.10
2020,05,11,01,50,15.10
2020,05,11,01,51,15.10
2020,05,11,01,52,15.10
2020,05,11,01,53,15.10
2020,05,11,01,54,15.10
2020,05,11,01,55,15.10
2020,05,11,01,56,15.10
2020,05,11,01,57,15.10
2020,05,11,01,58,15.10
2020,05,11,01,59,15.10
2020,05,11,02,00,15.10
2020,05,11,02,01,15.10
2020,05,11,02,02,15.10
2020,05,11,02,03,15.10
2020,05,11,02,04,15.10
2020,05,11,02,05,15.10
2020,05,11,02,06,15.00
2020,05,11,02,07,15.00
2020,05,11,02,08,15.00
2020,05,11,02,09,15.00
2020,05,11,02,10,15.00
2020,05,11,02,11,15.00
2020,05,11,02,12,15.00
2020,05,11,02,13,14.90
2020,05,11,02,14,14.90
2020,05,11,02,15,14.90
2020,05,11,02,16,14.90
2020,05,11,02,17,14.90
2020,05,11,02,18,14.90
2020,05,11,02,19,14.90
2020,05,11,02,20,14.90
2020,05,11,02,21,14.90
2020,05,11,02,22,14.90
2020,05,11,02,23,14.90
2020,05,11,02,24,14.80
2020,05,11,02,25,14.80
2020,05,11,02,26,14.80
2020,05,11,02,27,14.80
2020,05,11,02,28,14.80
2020,05,11,02,29,14.80
2020,05,11,02,30,14.80
2020,05,11,02,31,14.80
2020,05,11,02,32,14.70
2020,05,11,02,33,14.70
2020,05,11,02,34,14.70
2020,05,11,02,35,14.70
2020,05,11,02,36,14.70
2020,05,11,02,37,14.70
2020,05,11,02,38,14.70
2020,05,11,02,39,14.60
2020,05,11,02,40,14.60
2020,05,11,02,41,14.60
2020,05,11,02,42,14.60
2020,05,11,02,43,14.60
2020,05,11,02,44,14.60
2020,05,11,02,45,14.60
2020,05,11,02,46,14.60
2020,05,11,02,47,14.60
2020,05,11,02,48,14.60
2020,05,11,02,49,14.60
2020,05,11,02,50,14.60
2020,05,11,02,51,14.60
2020,05,11,02,52,14.60
2020,05,11,02,53,14.60
2020,05,11,02,54,14.60
2020,05,11,02,55,14.60
2020,05,11,02,56,14.50
2020,05,11,02,57,14.50
2020,05,11,02,58,14.50
2020,05,11,02,59,14.50
2020,05,11,03,00,14.40
2020,05,11,03,01,14.40
2020,05,11,03,02,14.40
2020,05,11,03,03,14.40
2020,05,11,03,04,14.40
2020,05,11,03,05,14.40
2020,05,11,03,06,14.40
2020,05,11,03,07,14.40
2020,05,11,03,08,14.30
2020,05,11,03,09,14.30
2020,05,11,03,10,14.30
2020,05,11,03,11,14.30
2020,05,11,03,12,14.30
2020,05,11,03,13,14.30
2020,05,11,03,14,14.20
2020,05,11,03,15,14.20
2020,05,11,03,16,14.20
2020,05,11,03,17,14.20
2020,05,11,03,18,14.20
2020,05,11,03,19,14.20
2020,05,11,03,20,14.20
2020,05,11,03,21,14.20
2020,05,11,03,22,14.20
2020,05,11,03,23,14.20
2020,05,11,03,24,14.20
2020,05,11,03,25,14.10
2020,05,11,03,26,14.10
2020,05,11,03,27,14.10
2020,05,11,03,28,14.10
2020,05,11,03,29,14.10
2020,05,11,03,30,14.10
2020,05,11,03,31,14.10
2020,05,11,03,32,14.10
2020,05,11,03,33,14.10
2020,05,11,03,34,14.10
2020,05,11,03,35,14.00
2020,05,11,03,36,14.00
2020,05,11,03,37,14.00
2020,05,11,03,38,14.00
2020,05,11,03,39,14.00
2020,05,11,03,40,14.00
2020,05,11,03,41,14.00
2020,05,11,03,42,14.00
2020,05,11,03,43,13.90
2020,05,11,03,44,13.90
2020,05,11,03,45,13.90
2020,05,11,03,46,13.90
2020,05,11,03,47,13.90
2020,05,11,03,48,13.90
2020,05,11,03,49,13.90
2020,05,11,03,50,13.90
2020,05,11,03,51,13.90
2020,05,11,03,52,13.90
2020,05,11,03,53,13.90
2020,05,11,03,54,13.90
2020,05,11,03,55,13.90
2020,05,11,03,56,13.80
2020,05,11,03,57,13.80
2020,05,11,03,58,13.80
2020,05,11,03,59,13.80
2020,05,11,04,00,13.80
2020,05,11,04,01,13.80
2020,05,11,04,02,13.80
2020,05,11,04,03,13.80
2020,05,11,04,04,13.80
2020,05,11,04,05,13.80
2020,05,11,04,06,13.80
2020,05,11,04,07,13.80
2020,05,11,04,08,13.80
2020,05,11,04,09,13.80
2020,05,11,04,10,13.80
2020,05,11,04,11,13.80
2020,05,11,04,12,13.80
2020,05,11,04,13,13.90
2020,05,11,04,14,13.90
2020,05,11,04,15,13.90
2020,05,11,04,16,13.90
2020,05,11,04,17,13.90
2020,05,11,04,18,13.90
2020,05,11,04,19,13.90
2020,05,11,04,20,14.00
2020,05,11,04,21,14.10
2020,05,11,04,22,14.10
2020,05,11,04,23,14.30
2020,05,11,04,24,14.50
2020,05,11,04,25,14.60
2020,05,11,04,26,14.80
2020,05,11,04,27,14.90
2020,05,11,04,28,15.10
2020,05,11,04,29,15.30
2020,05,11,04,30,15.40
2020,05,11,04,31,15.50
2020,05,11,04,32,15.60
2020,05,11,04,33,15.70
2020,05,11,04,34,15.70
2020,05,11,04,35,15.80
2020,05,11,04,36,15.80
2020,05,11,04,37,15.90
2020,05,11,04,38,16.00
2020,05,11,04,39,16.10
2020,05,11,04,40,16.10
2020,05,11,04,41,16.10
2020,05,11,04,42,16.10
2020,05,11,04,43,16.10
2020,05,11,04,44,16.00
2020,05,11,04,45,16.00
2020,05,11,04,46,15.90
2020,05,11,04,47,15.90
2020,05,11,04,48,15.80
2020,05,11,04,49,15.70
2020,05,11,04,50,15.70
2020,05,11,04,51,15.50
2020,05,11,04,52,15.50
2020,05,11,04,53,15.40
2020,05,11,04,54,15.30
2020,05,11,04,55,15.30
2020,05,11,04,56,15.20
2020,05,11,04,57,15.20
2020,05,11,04,58,15.10
2020,05,11,04,59,15.10
2020,05,11,05,00,15.00
2020,05,11,05,01,15.00
2020,05,11,05,02,14.90
2020,05,11,05,03,14.90
2020,05,11,05,04,14.90
2020,05,11,05,05,14.80
2020,05,11,05,06,14.80
2020,05,11,05,07,14.80
2020,05,11,05,08,14.80
2020,05,11,05,09,14.80
2020,05,11,05,10,14.70
2020,05,11,05,11,14.70
2020,05,11,05,12,14.70
2020,05,11,05,13,14.60
2020,05,11,05,14,14.60
2020,05,11,05,15,14.60
2020,05,11,05,16,14.50
2020,05,11,05,17,14.50
2020,05,11,05,18,14.50
2020,05,11,05,19,14.40
2020,05,11,05,20,14.40
2020,05,11,05,21,14.40
2020,05,11,05,22,14.40
2020,05,11,05,23,14.30
2020,05,11,05,24,14.30
2020,05,11,05,25,14.30
2020,05,11,05,26,14.30
2020,05,11,05,27,14.30
2020,05,11,05,28,14.20
2020,05,11,05,29,14.20
2020,05,11,05,30,14.20
2020,05,11,05,31,14.20
2020,05,11,05,32,14.20
2020,05,11,05,33,14.20
2020,05,11,05,34,14.20
2020,05,11,05,35,14.20
2020,05,11,05,36,14.20
2020,05,11,05,37,14.20
2020,05,11,05,38,14.20
2020,05,11,05,39,14.20
2020,05,11,05,40,14.20
2020,05,11,05,41,14.20
2020,05,11,05,42,14.20
2020,05,11,05,43,14.20
2020,05,11,05,44,14.20
2020,05,11,05,45,14.20
2020,05,11,05,46,14.20
2020,05,11,05,47,14.20
2020,05,11,05,48,14.20
2020,05,11,05,49,14.20
2020,05,11,05,50,14.20
2020,05,11,05,51,14.20
2020,05,11,05,52,14.20
2020,05,11,05,53,14.20
2020,05,11,05,54,14.20
2020,05,11,05,55,14.20
2020,05,11,05,56,14.20
2020,05,11,05,57,14.20
2020,05,11,05,58,14.20
2020,05,11,05,59,14.20
2020,05,11,06,00,14.20
2020,05,11,06,01,14.20
2020,05,11,06,02,14.20
2020,05,11,06,03,14.20
2020,05,11,06,04,14.20
2020,05,11,06,05,14.20
2020,05,11,06,06,14.20
2020,05,11,06,07,14.20
2020,05,11,06,08,14.20
2020,05,11,06,09,14.20
2020,05,11,06,10,14.20
2020,05,11,06,11,14.20
2020,05,11,06,12,14.20
2020,05,11,06,13,14.20
2020,05,11,06,14,14.20
2020,05,11,06,15,14.20
2020,05,11,06,16,14.20
2020,05,11,06,17,14.20
2020,05,11,06,18,14.30
2020,05,11,06,19,14.30
2020,05,11,06,20,14.30
2020,05,11,06,21,14.30
2020,05,11,06,22,14.30
2020,05,11,06,23,14.30
2020,05,11,06,24,14.30
2020,05,11,06,25,14.30
2020,05,11,06,26,14.30
2020,05,11,06,27,14.40
2020,05,11,06,28,14.40
2020,05,11,06,29,14.40
2020,05,11,06,30,14.40
2020,05,11,06,31,14.40
2020,05,11,06,32,14.40
2020,05,11,06,33,14.40
2020,05,11,06,34,14.50
2020,05,11,06,35,14.50
2020,05,11,06,36,14.50
2020,05,11,06,37,14.60
2020,05,11,06,38,14.60
2020,05,11,06,39,14.70
2020,05,11,06,40,14.70
2020,05,11,06,41,14.70
2020,05,11,06,42,14.80
2020,05,11,06,43,14.80
2020,05,11,06,44,14.90
2020,05,11,06,45,15.00
2020,05,11,06,46,15.10
2020,05,11,06,47,15.20
2020,05,11,06,48,15.30
2020,05,11,06,49,15.30
2020,05,11,06,50,15.40
2020,05,11,06,51,15.40
2020,05,11,06,52,15.50
2020,05,11,06,53,15.60
2020,05,11,06,54,15.70
2020,05,11,06,55,15.70
2020,05,11,06,56,15.80
2020,05,11,06,57,15.80
2020,05,11,06,58,15.90
2020,05,11,06,59,15.90
2020,05,11,07,00,16.00
2020,05,11,07,01,16.00
2020,05,11,07,02,16.10
2020,05,11,07,03,16.20
2020,05,11,07,04,16.20
2020,05,11,07,05,16.30
2020,05,11,07,06,16.40
2020,05,11,07,07,16.50
2020,05,11,07,08,16.50
2020,05,11,07,09,16.60
2020,05,11,07,10,16.60
2020,05,11,07,11,16.60
2020,05,11,07,12,16.70
2020,05,11,07,13,16.70
2020,05,11,07,14,16.70
2020,05,11,07,15,16.70
2020,05,11,07,16,16.80
2020,05,11,07,17,16.80
2020,05,11,07,18,16.90
2020,05,11,07,19,16.90
2020,05,11,07,20,17.00
2020,05,11,07,21,17.10
2020,05,11,07,22,17.10
2020,05,11,07,23,17.20
2020,05,11,07,24,17.20
2020,05,11,07,25,17.30
2020,05,11,07,26,17.40
2020,05,11,07,27,17.50
2020,05,11,07,28,17.60
2020,05,11,07,29,17.60
2020,05,11,07,30,17.70
2020,05,11,07,31,17.70
2020,05,11,07,32,17.80
2020,05,11,07,33,17.80
2020,05,11,07,34,17.80
2020,05,11,07,35,17.90
2020,05,11,07,36,17.90
2020,05,11,07,37,17.90
2020,05,11,07,38,18.00
2020,05,11,07,39,18.00
2020,05,11,07,40,18.10
2020,05,11,07,41,18.20
2020,05,11,07,42,18.20
2020,05,11,07,43,18.30
2020,05,11,07,44,18.30
2020,05,11,07,45,18.40
2020,05,11,07,46,18.40
2020,05,11,07,47,18.50
2020,05,11,07,48,18.60
2020,05,11,07,49,18.60
2020,05,11,07,50,18.70
2020,05,11,07,51,18.80
2020,05,11,07,52,18.80
2020,05,11,07,53,18.90
2020,05,11,07,54,19.00
2020,05,11,07,55,19.10
2020,05,11,07,56,19.20
2020,05,11,07,57,19.30
2020,05,11,07,58,19.40
2020,05,11,07,59,19.50
2020,05,11,08,00,19.70
2020,05,11,08,01,19.80
2020,05,11,08,02,19.80
2020,05,11,08,03,19.90
2020,05,11,08,04,19.90
2020,05,11,08,05,20.00
2020,05,11,08,06,20.10
2020,05,11,08,07,20.10
2020,05,11,08,08,20.20
2020,05,11,08,09,20.20
2020,05,11,08,10,20.20
2020,05,11,08,11,20.20
2020,05,11,08,12,20.20
2020,05,11,08,13,20.20
2020,05,11,08,14,20.20
2020,05,11,08,15,20.20
2020,05,11,08,16,20.30
2020,05,11,08,17,20.30
2020,05,11,08,18,20.30
2020,05,11,08,19,20.30
2020,05,11,08,20,20.30
2020,05,11,08,21,20.30
2020,05,11,08,22,20.30
2020,05,11,08,23,20.30
2020,05,11,08,24,20.20
2020,05,11,08,25,20.20
2020,05,11,08,26,20.20
2020,05,11,08,27,20.20
2020,05,11,08,28,20.20
2020,05,11,08,29,20.20
2020,05,11,08,30,20.20
2020,05,11,08,31,20.20
2020,05,11,08,32,20.20
2020,05,11,08,33,20.20
2020,05,11,08,34,20.30
2020,05,11,08,35,20.30
2020,05,11,08,36,20.30
2020,05,11,08,37,20.30
2020,05,11,08,38,20.30
2020,05,11,08,39,20.30
2020,05,11,08,40,20.30
2020,05,11,08,41,20.30
2020,05,11,08,42,20.30
2020,05,11,08,43,20.30
2020,05,11,08,44,20.30
2020,05,11,08,45,20.30
2020,05,11,08,46,20.30
2020,05,11,08,47,20.40
2020,05,11,08,48,20.40
2020,05,11,08,49,20.40
2020,05,11,08,50,20.40
2020,05,11,08,51,20.40
2020,05,11,08,52,20.40
2020,05,11,08,53,20.40
2020,05,11,08,54,20.40
2020,05,11,08,55,20.40
2020,05,11,08,56,20.30
2020,05,11,08,57,20.30
2020,05,11,08,58,20.30
2020,05,11,08,59,20.30
2020,05,11,09,00,20.30
2020,05,11,09,01,20.30
2020,05,11,09,02,20.30
2020,05,11,09,03,20.30
2020,05,11,09,04,20.30
2020,05,11,09,05,20.30
2020,05,11,09,06,20.30
2020,05,11,09,07,20.30
2020,05,11,09,08,20.30
2020,05,11,09,09,20.30
2020,05,11,09,10,20.40
2020,05,11,09,11,20.40
2020,05,11,09,12,20.40
2020,05,11,09,13,20.40
2020,05,11,09,14,20.40
2020,05,11,09,15,20.40
2020,05,11,09,16,20.50
2020,05,11,09,17,20.50
2020,05,11,09,18,20.40
2020,05,11,09,19,20.40
2020,05,11,09,20,20.40
2020,05,11,09,21,20.50
2020,05,11,09,22,20.50
2020,05,11,09,23,20.50
2020,05,11,09,24,20.50
2020,05,11,09,25,20.50
2020,05,11,09,26,20.50
2020,05,11,09,27,20.60
2020,05,11,09,28,20.60
2020,05,11,09,29,20.70
2020,05,11,09,30,20.80
2020,05,11,09,31,20.80
2020,05,11,09,32,20.90
2020,05,11,09,33,20.90
2020,05,11,09,34,20.90
2020,05,11,09,35,20.90
2020,05,11,09,36,20.90
2020,05,11,09,37,20.90
2020,05,11,09,38,21.00
2020,05,11,09,39,21.00
2020,05,11,09,40,21.10
2020,05,11,09,41,21.20
2020,05,11,09,42,21.30
2020,05,11,09,43,21.30
2020,05,11,09,44,21.30
2020,05,11,09,45,21.30
2020,05,11,09,46,21.30
2020,05,11,09,47,21.20
2020,05,11,09,48,21.20
2020,05,11,09,49,21.20
2020,05,11,09,50,21.20
2020,05,11,09,51,21.20
2020,05,11,09,52,21.20
2020,05,11,09,53,21.20
2020,05,11,09,54,21.20
2020,05,11,09,55,21.20
2020,05,11,09,56,21.10
2020,05,11,09,57,21.10
2020,05,11,09,58,21.10
2020,05,11,09,59,21.10
2020,05,11,10,00,21.10
2020,05,11,10,01,21.00
2020,05,11,10,02,21.10
2020,05,11,10,03,21.10
2020,05,11,10,04,21.10
2020,05,11,10,05,21.10
2020,05,11,10,06,21.20
2020,05,11,10,07,21.30
2020,05,11,10,08,21.30
2020,05,11,10,09,21.30
2020,05,11,10,10,21.30
2020,05,11,10,11,21.40
2020,05,11,10,12,21.40
2020,05,11,10,13,21.30
2020,05,11,10,14,21.30
2020,05,11,10,15,21.40
2020,05,11,10,16,21.40
2020,05,11,10,17,21.40
2020,05,11,10,18,21.50
2020,05,11,10,19,21.50
2020,05,11,10,20,21.50
2020,05,11,10,21,21.50
2020,05,11,10,22,21.50
2020,05,11,10,23,21.50
2020,05,11,10,24,21.50
2020,05,11,10,25,21.50
2020,05,11,10,26,21.60
2020,05,11,10,27,21.60
2020,05,11,10,28,21.60
2020,05,11,10,29,21.50
2020,05,11,10,30,21.50
2020,05,11,10,31,21.50
2020,05,11,10,32,21.50
2020,05,11,10,33,21.50
2020,05,11,10,34,21.60
2020,05,11,10,35,21.60
2020,05,11,10,36,21.70
2020,05,11,10,37,21.70
2020,05,11,10,38,21.80
2020,05,11,10,39,21.80
2020,05,11,10,40,21.90
2020,05,11,10,41,21.90
2020,05,11,10,42,22.00
2020,05,11,10,43,22.00
2020,05,11,10,44,22.10
2020,05,11,10,45,22.10
2020,05,11,10,46,22.10
2020,05,11,10,47,22.10
2020,05,11,10,48,22.10
2020,05,11,10,49,22.10
2020,05,11,10,50,22.10
2020,05,11,10,51,22.10
2020,05,11,10,52,22.00
2020,05,11,10,53,22.00
2020,05,11,10,54,22.00
2020,05,11,10,55,22.10
2020,05,11,10,56,22.10
2020,05,11,10,57,22.10
2020,05,11,10,58,22.10
2020,05,11,10,59,22.10
2020,05,11,11,00,22.10
2020,05,11,11,01,22.10
2020,05,11,11,02,22.10
2020,05,11,11,03,22.00
2020,05,11,11,04,22.00
2020,05,11,11,05,22.00
2020,05,11,11,06,21.90
2020,05,11,11,07,21.80
2020,05,11,11,08,21.80
2020,05,11,11,09,21.70
2020,05,11,11,10,21.70
2020,05,11,11,11,21.60
2020,05,11,11,12,21.60
2020,05,11,11,13,21.60
2020,05,11,11,14,21.60
2020,05,11,11,15,21.50
2020,05,11,11,16,21.50
2020,05,11,11,17,21.50
2020,05,11,11,18,21.40
2020,05,11,11,19,21.40
2020,05,11,11,20,21.40
2020,05,11,11,21,21.30
2020,05,11,11,22,21.30
2020,05,11,11,23,21.30
2020,05,11,11,24,21.30
2020,05,11,11,25,21.30
2020,05,11,11,26,21.30
2020,05,11,11,27,21.30
2020,05,11,11,28,21.40
2020,05,11,11,29,21.40
2020,05,11,11,30,21.40
2020,05,11,11,31,21.50
2020,05,11,11,32,21.50
2020,05,11,11,33,21.50
2020,05,11,11,34,21.50
2020,05,11,11,35,21.50
2020,05,11,11,36,21.60
2020,05,11,11,37,21.60
2020,05,11,11,38,21.70
2020,05,11,11,39,21.70
2020,05,11,11,40,21.60
2020,05,11,11,41,21.60
2020,05,11,11,42,21.60
2020,05,11,11,43,21.50
2020,05,11,11,44,21.50
2020,05,11,11,45,21.50
2020,05,11,11,46,21.50
2020,05,11,11,47,21.60
2020,05,11,11,48,21.70
2020,05,11,11,49,21.70
2020,05,11,11,50,21.70
2020,05,11,11,51,21.70
2020,05,11,11,52,21.70
2020,05,11,11,53,21.70
2020,05,11,11,54,21.80
2020,05,11,11,55,21.80
2020,05,11,11,56,21.80
2020,05,11,11,57,21.80
2020,05,11,11,58,21.80
2020,05,11,11,59,21.80
2020,05,11,12,00,21.80
2020,05,11,12,01,21.80
2020,05,11,12,02,21.70
2020,05,11,12,03,21.60
2020,05,11,12,04,21.50
2020,05,11,12,05,21.40
2020,05,11,12,06,21.40
2020,05,11,12,07,21.40
2020,05,11,12,08,21.40
2020,05,11,12,09,21.50
2020,05,11,12,10,21.50
2020,05,11,12,11,21.50
2020,05,11,12,12,21.40
2020,05,11,12,13,21.40
2020,05,11,12,14,21.40
2020,05,11,12,15,21.40
2020,05,11,12,16,21.40
2020,05,11,12,17,21.50
2020,05,11,12,18,21.60
2020,05,11,12,19,21.60
2020,05,11,12,20,21.70
2020,05,11,12,21,21.80
2020,05,11,12,22,21.80
2020,05,11,12,23,21.80
2020,05,11,12,24,21.80
2020,05,11,12,25,21.80
2020,05,11,12,26,21.80
2020,05,11,12,27,21.80
2020,05,11,12,28,21.80
2020,05,11,12,29,21.80
2020,05,11,12,30,21.80
2020,05,11,12,31,21.80
2020,05,11,12,32,21.80
2020,05,11,12,33,21.90
2020,05,11,12,34,21.90
2020,05,11,12,35,21.90
2020,05,11,12,36,21.90
2020,05,11,12,37,21.90
2020,05,11,12,38,22.00
2020,05,11,12,39,22.10
2020,05,11,12,40,22.10
2020,05,11,12,41,22.10
2020,05,11,12,42,22.20
2020,05,11,12,43,22.20
2020,05,11,12,44,22.20
2020,05,11,12,45,22.20
2020,05,11,12,46,22.20
2020,05,11,12,47,22.20
2020,05,11,12,48,22.20
2020,05,11,12,49,22.20
2020,05,11,12,50,22.20
2020,05,11,12,51,22.20
2020,05,11,12,52,22.30
2020,05,11,12,53,22.30
2020,05,11,12,54,22.40
2020,05,11,12,55,22.40
2020,05,11,12,56,22.40
2020,05,11,12,57,22.40
2020,05,11,12,58,22.40
2020,05,11,12,59,22.40
2020,05,11,13,00,22.40
2020,05,11,13,01,22.50
2020,05,11,13,02,22.60
2020,05,11,13,03,22.60
2020,05,11,13,04,22.70
2020,05,11,13,05,22.70
2020,05,11,13,06,22.70
2020,05,11,13,07,22.70
2020,05,11,13,08,22.70
2020,05,11,13,09,22.70
2020,05,11,13,10,22.70
2020,05,11,13,11,22.60
2020,05,11,13,12,22.60
2020,05,11,13,13,22.60
2020,05,11,13,14,22.60
2020,05,11,13,15,22.70
2020,05,11,13,16,22.70
2020,05,11,13,17,22.70
2020,05,11,13,18,22.70
2020,05,11,13,19,22.60
2020,05,11,13,20,22.50
2020,05,11,13,21,22.30
2020,05,11,13,22,22.00
2020,05,11,13,23,21.80
2020,05,11,13,24,21.70
2020,05,11,13,25,21.60
2020,05,11,13,26,21.50
2020,05,11,13,27,21.40
2020,05,11,13,28,21.40
2020,05,11,13,29,21.30
2020,05,11,13,30,21.30
2020,05,11,13,31,21.30
2020,05,11,13,32,21.30
2020,05,11,13,33,21.30
2020,05,11,13,34,21.30
2020,05,11,13,35,21.30
2020,05,11,13,36,21.30
2020,05,11,13,37,21.30
2020,05,11,13,38,21.30
2020,05,11,13,39,21.30
2020,05,11,13,40,21.30
2020,05,11,13,41,21.30
2020,05,11,13,42,21.30
2020,05,11,13,43,21.30
2020,05,11,13,44,21.30
2020,05,11,13,45,21.30
2020,05,11,13,46,21.20
2020,05,11,13,47,21.30
2020,05,11,13,48,21.30
2020,05,11,13,49,21.30
2020,05,11,13,50,21.30
2020,05,11,13,51,21.30
2020,05,11,13,52,21.30
2020,05,11,13,53,21.40
2020,05,11,13,54,21.30
2020,05,11,13,55,21.30
2020,05,11,13,56,21.20
2020,05,11,13,57,21.20
2020,05,11,13,58,21.10
2020,05,11,13,59,21.10
2020,05,11,14,00,21.10
2020,05,11,14,01,21.00
2020,05,11,14,02,20.90
2020,05,11,14,03,20.90
2020,05,11,14,04,20.90
2020,05,11,14,05,20.90
2020,05,11,14,06,20.90
2020,05,11,14,07,20.90
2020,05,11,14,08,20.90
2020,05,11,14,09,20.80
2020,05,11,14,10,20.90
2020,05,11,14,11,20.80
2020,05,11,14,12,20.80
2020,05,11,14,13,20.80
2020,05,11,14,14,20.80
2020,05,11,14,15,20.90
2020,05,11,14,16,20.90
2020,05,11,14,17,21.00
2020,05,11,14,18,21.10
2020,05,11,14,19,21.10
2020,05,11,14,20,21.10
2020,05,11,14,21,21.10
2020,05,11,14,22,21.00
2020,05,11,14,23,21.00
2020,05,11,14,24,21.10
2020,05,11,14,25,21.10
2020,05,11,14,26,21.10
2020,05,11,14,27,21.10
2020,05,11,14,28,21.10
2020,05,11,14,29,21.10
2020,05,11,14,30,21.10
2020,05,11,14,31,21.10
2020,05,11,14,32,21.00
2020,05,11,14,33,21.00
2020,05,11,14,34,20.90
2020,05,11,14,35,20.90
2020,05,11,14,36,21.00
2020,05,11,14,37,21.00
2020,05,11,14,38,21.00
2020,05,11,14,39,21.00
2020,05,11,14,40,21.00
2020,05,11,14,41,21.10
2020,05,11,14,42,21.10
2020,05,11,14,43,21.10
2020,05,11,14,44,21.00
2020,05,11,14,45,21.00
2020,05,11,14,46,21.00
2020,05,11,14,47,20.90
2020,05,11,14,48,20.90
2020,05,11,14,49,20.90
2020,05,11,14,50,21.00
2020,05,11,14,51,21.00
2020,05,11,14,52,21.10
2020,05,11,14,53,21.10
2020,05,11,14,54,21.10
2020,05,11,14,55,21.10
2020,05,11,14,56,21.10
2020,05,11,14,57,21.10
2020,05,11,14,58,21.20
2020,05,11,14,59,21.20
2020,05,11,15,00,21.20
2020,05,11,15,01,21.20
2020,05,11,15,02,21.30
2020,05,11,15,03,21.30
2020,05,11,15,04,21.30
2020,05,11,15,05,21.30
2020,05,11,15,06,21.30
2020,05,11,15,07,21.30
2020,05,11,15,08,21.20
2020,05,11,15,09,21.20
2020,05,11,15,10,21.20
2020,05,11,15,11,21.20
2020,05,11,15,12,21.20
2020,05,11,15,13,21.30
2020,05,11,15,14,21.30
2020,05,11,15,15,21.40
2020,05,11,15,16,21.50
2020,05,11,15,17,21.60
2020,05,11,15,18,21.60
2020,05,11,15,19,21.60
2020,05,11,15,20,21.60
2020,05,11,15,21,21.60
2020,05,11,15,22,21.50
2020,05,11,15,23,21.40
2020,05,11,15,24,21.40
2020,05,11,15,25,21.40
2020,05,11,15,26,21.40
2020,05,11,15,27,21.40
2020,05,11,15,28,21.40
2020,05,11,15,29,21.40
2020,05,11,15,30,21.40
2020,05,11,15,31,21.40
2020,05,11,15,32,21.40
2020,05,11,15,33,21.50
2020,05,11,15,34,21.50
2020,05,11,15,35,21.50
2020,05,11,15,36,21.50
2020,05,11,15,37,21.50
2020,05,11,15,38,21.50
2020,05,11,15,39,21.50
2020,05,11,15,40,21.50
2020,05,11,15,41,21.60
2020,05,11,15,42,21.60
2020,05,11,15,43,21.60
2020,05,11,15,44,21.70
2020,05,11,15,45,21.70
2020,05,11,15,46,21.80
2020,05,11,15,47,21.90
2020,05,11,15,48,21.90
2020,05,11,15,49,21.90
2020,05,11,15,50,21.90
2020,05,11,15,51,21.90
2020,05,11,15,52,21.90
2020,05,11,15,53,21.90
2020,05,11,15,54,21.90
2020,05,11,15,55,21.90
2020,05,11,15,56,21.90
2020,05,11,15,57,21.90
2020,05,11,15,58,21.90
2020,05,11,15,59,21.90
2020,05,11,16,00,21.90
2020,05,11,16,01,21.90
2020,05,11,16,02,21.90
2020,05,11,16,03,21.80
2020,05,11,16,04,21.80
2020,05,11,16,05,21.80
2020,05,11,16,06,21.80
2020,05,11,16,07,21.80
2020,05,11,16,08,21.80
2020,05,11,16,09,21.70
2020,05,11,16,10,21.70
2020,05,11,16,11,21.60
2020,05,11,16,12,21.60
2020,05,11,16,13,21.60
2020,05,11,16,14,21.60
2020,05,11,16,15,21.60
2020,05,11,16,16,21.70
2020,05,11,16,17,21.70
2020,05,11,16,18,21.70
2020,05,11,16,19,21.70
2020,05,11,16,20,21.60
2020,05,11,16,21,21.60
2020,05,11,16,22,21.60
2020,05,11,16,23,21.60
2020,05,11,16,24,21.60
2020,05,11,16,25,21.60
2020,05,11,16,26,21.60
2020,05,11,16,27,21.60
2020,05,11,16,28,21.60
2020,05,11,16,29,21.60
2020,05,11,16,30,21.60
2020,05,11,16,31,21.60
2020,05,11,16,32,21.60
2020,05,11,16,33,21.60
2020,05,11,16,34,21.60
2020,05,11,16,35,21.60
2020,05,11,16,36,21.60
2020,05,11,16,37,21.60
2020,05,11,16,38,21.60
2020,05,11,16,39,21.60
2020,05,11,16,40,21.50
2020,05,11,16,41,21.50
2020,05,11,16,42,21.40
2020,05,11,16,43,21.40
2020,05,11,16,44,21.30
2020,05,11,16,45,21.30
2020,05,11,16,46,21.20
2020,05,11,16,47,21.20
2020,05,11,16,48,21.10
2020,05,11,16,49,21.10
2020,05,11,16,50,21.00
2020,05,11,16,51,21.00
2020,05,11,16,52,21.00
2020,05,11,16,53,20.90
2020,05,11,16,54,20.90
2020,05,11,16,55,20.80
2020,05,11,16,56,20.70
2020,05,11,16,57,20.60
2020,05,11,16,58,20.50
2020,05,11,16,59,20.40
2020,05,11,17,00,20.30
2020,05,11,17,01,20.30
2020,05,11,17,02,20.30
2020,05,11,17,03,20.20
2020,05,11,17,04,20.20
2020,05,11,17,05,20.10
2020,05,11,17,06,20.00
2020,05,11,17,07,19.90
2020,05,11,17,08,19.80
2020,05,11,17,09,19.70
2020,05,11,17,10,19.70
2020,05,11,17,11,19.60
2020,05,11,17,12,19.60
2020,05,11,17,13,19.50
2020,05,11,17,14,19.40
2020,05,11,17,15,19.30
2020,05,11,17,16,19.30
2020,05,11,17,17,19.30
2020,05,11,17,18,19.20
2020,05,11,17,19,19.20